User: anonymous   Login
Location: Baix
(44.7118°N, 4.7648°E)
Time: 10:58:28
(UTC+00:00)
Language:

Cosmos 2322 Rocket - Orbit

View from above orbital plane
View from above orbital plane
View from above satellite
View from above satellite

Ground track
Ground track

The orbit data is extracted from the following two-line orbital elements,

1 23705U 95058B   20300.14381326  .00000256  00000-0  15598-3 0  9991
2 23705  71.0223 334.7479 0014276 233.5593 126.4215 14.15139253290760
Epoch (UTC): 26 October 2020 03:27:05
Eccentricity: 0.0014276
inclination: 71.0223°
perigee height: 831 km
apogee height: 852 km
right ascension of ascending node: 334.7479°
argument of perigee: 233.5593°
revolutions per day: 14.15139253
mean anomaly at epoch: 126.4215°
orbit number at epoch: 29076

The dashed part of the orbit path shows where the satellite is in the earth's shadow,  

DLR